QPF
0.00 0.00 0.00 0.00 0.00 0.00 0.00 0.00 0.00 0.00 0.00 0.00 0.00 0.00 0.00 0.00 0.00 0.00 0.00 0.00 0.00 0.00 0.00 0.00 0.00 0.00 0.00 0.00 0.00 0.00 0.00 0.00 0.00 0.00 0.00 0.00 0.00 0.00
0.00 0.00 0.00 0.00 0.00 0.00 0.00 0.00 0.00 0.00 0.00 0.00 0.00 0.00 0.00 0.00 0.00 0.00 0.00 0.00 0.00 0.00 0.00 0.00 0.00 0.00 0.00 0.00 0.00 0.00 0.00 0.00 0.00 0.00 0.00 0.00 0.00 0.00
0.00 0.00 0.00 0.00 0.00 0.00 0.00 0.00 0.00 0.00 0.00 0.00 0.00 0.00 0.00 0.00 0.00 0.00 0.00 0.00 0.00 0.00 0.00 0.00 0.00 0.00 0.00 0.00 0.00 0.00 0.00 0.00 0.00 0.00 0.00 0.00 0.00 0.00
0.00 0.00 0.00 0.00 0.00 0.00 0.00 0.00 0.00 0.00 0.00 0.00 0.00 0.00 0.00 0.00 0.00 0.00 0.00 0.00 0.00 0.00 0.00 0.00 0.00 0.00 0.00 0.00 0.00 0.00 0.00 0.00 0.00 0.00 0.00 0.00 0.00 0.00
0.00 0.00 0.00 0.00 0.00 0.00 0.00 0.00 0.00 0.00 0.00 0.00 0.00 0.00 0.00 0.00 0.00 0.00 0.00 0.00 0.00 0.00 0.00 0.00 0.00 0.00 0.00 0.00 0.00 0.00 0.00 0.00 0.00 0.00 0.00 0.00 0.00 0.00
0.00 0.00 0.00 0.00 0.00 0.00 0.00 0.00 0.00 0.00 0.00 0.00 0.00 0.00 0.00 0.00 0.00 0.00 0.00 0.00 0.00 0.00 0.00 0.00 0.00 0.00 0.00 0.00 0.00 0.00 0.00 0.00 0.00 0.00 0.00 0.00 0.00 0.00
0.00 0.00 0.01 0.01 0.00 0.00 0.00 0.00 0.00 0.00 0.00 0.00 0.00 0.00 0.00 0.00 0.00 0.00 0.00 0.00 0.00 0.00 0.00 0.00 0.00 0.00 0.00 0.00 0.00 0.00 0.00 0.00 0.00 0.00 0.00 0.00 0.00 0.00
0.00 0.00 0.00 0.00 0.01 0.00 0.00 0.00 0.00 0.00 0.00 0.00 0.00 0.00 0.01 0.01 0.00 0.00 0.00 0.00 0.00 0.00 0.00 0.00 0.00 0.00 0.00 0.00 0.00 0.00 0.00 0.00 0.00 0.00 0.00 0.00 0.00 0.00
0.00 0.00 0.00 0.00 0.02 0.00 0.00 0.00 0.00 0.00 0.00 0.00 0.00 0.01 0.01 0.01 0.00 0.00 0.00 0.00 0.00 0.00 0.00 0.00 0.00 0.00 0.00 0.00 0.00 0.00 0.00 0.00 0.00 0.00 0.00 0.00 0.00 0.00
0.00 0.00 0.00 0.00 0.00 0.00 0.00 0.00 0.00 0.00 0.00 0.00 0.00 0.03 0.01 0.00 0.00 0.01 0.01 0.00 0.00 0.00 0.00 0.00 0.00 0.00 0.00 0.00 0.00 0.00 0.00 0.00 0.00 0.00 0.00 0.00 0.00 0.00
0.00 0.00 0.00 0.00 0.00 0.00 0.00 0.00 0.00 0.00 0.00 0.00 0.00 0.00 0.00 0.00 0.00 0.00 0.00 0.00 0.00 0.00 0.00 0.00 0.00 0.00 0.00 0.00 0.00 0.00 0.00 0.00 0.00 0.00 0.00 0.00 0.00 0.00
0.01 0.01 0.03 0.05 0.02 0.01 0.00 0.00 0.00 0.00 0.00 0.00 0.00 0.00 0.00 0.00 0.00 0.00 0.00 0.00 0.00 0.00 0.00 0.00 0.00 0.00 0.00 0.00 0.00 0.00 0.00 0.00 0.00 0.00 0.00 0.00 0.00 0.00
0.01 0.00 0.05 0.05 0.01 0.00 0.00 0.00 0.00 0.00 0.00 0.00 0.00 0.00 0.00 0.00 0.00 0.00 0.00 0.00 0.00 0.00 0.00 0.00 0.00 0.00 0.00 0.00 0.00 0.00 0.00 0.00 0.00 0.00 0.00 0.00 0.00 0.00
0.03 0.03 0.02 0.05 0.03 0.01 0.00 0.00 0.00 0.00 0.00 0.00 0.00 0.00 0.00 0.00 0.00 0.00 0.00 0.00 0.00 0.00 0.00 0.00 0.00 0.00 0.00 0.00 0.00 0.00 0.00 0.00 0.00 0.00 0.00 0.00 0.00 0.00
0.11 0.11 0.06 0.04 0.02 0.00 0.00 0.00 0.00 0.00 0.00 0.00 0.00 0.00 0.00 0.00 0.00 0.00 0.00 0.00 0.00 0.00 0.00 0.00 0.00 0.00 0.00 0.00 0.00 0.00 0.00 0.00 0.00 0.00 0.00 0.00 0.00 0.00
0.13 0.11 0.06 0.03 0.01 0.00 0.00 0.00 0.00 0.00 0.00 0.00 0.00 0.00 0.00 0.00 0.00 0.00 0.00 0.00 0.00 0.00 0.00 0.00 0.00 0.00 0.00 0.00 0.00 0.00 0.00 0.00 0.00 0.00 0.00 0.00 0.00 0.00
0.09 0.05 0.02 0.01 0.00 0.00 0.00 0.00 0.00 0.00 0.00 0.00 0.00 0.00 0.00 0.00 0.00 0.00 0.00 0.00 0.00 0.00 0.00 0.00 0.00 0.00 0.00 0.00 0.00 0.00 0.00 0.00 0.00 0.00 0.00 0.00 0.00 0.00
0.01 0.00 0.00 0.00 0.00 0.00 0.00 0.00 0.00 0.00 0.00 0.00 0.00 0.00 0.00 0.00 0.00 0.00 0.00 0.00 0.00 0.00 0.00 0.00 0.00 0.00 0.00 0.00 0.00 0.00 0.00 0.00 0.00 0.00 0.00 0.00 0.00 0.00
0.00 0.00 0.00 0.00 0.00 0.00 0.00 0.00 0.00 0.00 0.00 0.00 0.00 0.00 0.00 0.00 0.00 0.00 0.00 0.00 0.00 0.00 0.00 0.00 0.00 0.00 0.00 0.00 0.00 0.00 0.00 0.00 0.00 0.00 0.00 0.00 0.00 0.00
0.00 0.00 0.00 0.00 0.00 0.00 0.00 0.00 0.00 0.00 0.00 0.00 0.00 0.00 0.00 0.00 0.00 0.00 0.00 0.00 0.00 0.00 0.00 0.00 0.00 0.00 0.00 0.00 0.00 0.00 0.00 0.00 0.00 0.00 0.00 0.00 0.00 0.00
0.02 0.03 0.03 0.03 0.01 0.00 0.00 0.00 0.00 0.00 0.00 0.00 0.00 0.00 0.00 0.00 0.00 0.00 0.00 0.00 0.00 0.00 0.00 0.00 0.00 0.00 0.00 0.00 0.00 0.00 0.00 0.00 0.00 0.00 0.00 0.00 0.00 0.00
0.04 0.03 0.02 0.01 0.00 0.00 0.00 0.00 0.00 0.00 0.00 0.00 0.00 0.00 0.00 0.00 0.00 0.00 0.00 0.00 0.00 0.00 0.00 0.00 0.00 0.00 0.00 0.00 0.00 0.00 0.00 0.00 0.00 0.00 0.00 0.00 0.00 0.00
0.02 0.01 0.00 0.00 0.00 0.00 0.00 0.00 0.00 0.00 0.00 0.00 0.00 0.00 0.00 0.00 0.00 0.00 0.00 0.00 0.00 0.00 0.00 0.00 0.00 0.00 0.00 0.00 0.00 0.00 0.00 0.00 0.00 0.00 0.00 0.00 0.00 0.00
MSLP
1019.69 1020.01 1020.05 1020.06 1020.37 1020.39 1020.59 1020.53 1020.24 1020.01 1019.96 1020.15 1020.22 1020.68 1020.73 1020.81 1020.95 1021.03 1021.12 1021.45 1021.70 1021.74 1021.73 1021.66 1021.62 1021.67 1021.67 1021.68 1021.64 1021.60 1021.61 1021.62 1021.61 1021.55 1021.53 1021.52 1021.51 1021.45
1019.04 1019.42 1019.64 1019.69 1019.94 1020.15 1020.27 1020.42 1020.40 1020.02 1019.71 1019.97 1020.12 1020.37 1020.52 1020.55 1020.75 1020.84 1020.77 1021.06 1021.15 1021.42 1021.55 1021.51 1021.43 1021.41 1021.47 1021.43 1021.26 1021.20 1021.23 1021.23 1021.25 1021.25 1021.20 1021.12 1021.04 1020.98
1018.35 1018.68 1018.96 1019.15 1019.15 1019.52 1019.76 1019.89 1019.98 1020.17 1019.80 1019.69 1019.96 1020.34 1020.67 1020.57 1020.35 1020.48 1020.40 1020.65 1020.67 1021.01 1020.91 1020.90 1021.01 1021.08 1020.97 1020.84 1020.97 1021.02 1020.96 1020.92 1020.85 1020.79 1020.78 1020.71 1020.57 1020.44
1017.29 1017.93 1018.24 1018.47 1018.57 1018.70 1019.02 1019.24 1019.49 1019.91 1019.72 1019.71 1019.54 1019.72 1020.19 1020.33 1020.34 1020.30 1020.21 1019.97 1020.37 1020.61 1021.13 1020.95 1020.82 1020.81 1020.76 1020.70 1020.61 1020.56 1020.46 1020.37 1020.45 1020.49 1020.39 1020.38 1020.23 1020.14
1016.52 1016.82 1016.44 1017.51 1018.49 1018.43 1018.57 1018.75 1018.97 1019.41 1019.77 1019.58 1019.20 1019.52 1019.71 1019.91 1020.15 1020.30 1020.33 1020.07 1019.94 1020.35 1020.54 1020.39 1020.50 1020.49 1020.50 1020.48 1020.40 1020.32 1020.19 1020.15 1020.12 1020.08 1020.06 1020.10 1020.12 1019.90
1015.56 1016.03 1016.70 1017.35 1017.70 1018.10 1018.33 1018.61 1018.75 1018.93 1019.33 1019.47 1019.12 1018.94 1019.22 1019.43 1019.66 1019.28 1019.13 1019.21 1019.13 1018.94 1019.32 1019.51 1019.75 1019.94 1020.17 1020.02 1019.91 1019.90 1019.90 1019.79 1019.83 1019.81 1019.78 1019.76 1019.70 1019.64
1014.87 1015.47 1015.87 1016.21 1016.76 1017.29 1017.76 1018.09 1018.29 1018.53 1018.55 1018.75 1018.83 1018.70 1018.52 1018.86 1018.89 1018.67 1018.77 1018.99 1019.13 1019.16 1019.08 1019.14 1018.99 1019.04 1019.08 1019.28 1019.23 1019.21 1019.39 1019.44 1019.41 1019.36 1019.38 1019.36 1019.31 1019.21
1013.90 1014.47 1014.99 1015.59 1015.95 1016.42 1016.93 1017.26 1017.46 1017.67 1017.87 1017.93 1018.13 1018.04 1017.87 1018.23 1018.30 1018.60 1018.96 1019.29 1019.17 1019.57 1019.38 1018.43 1018.80 1018.74 1018.45 1018.32 1018.47 1018.87 1019.10 1019.16 1019.13 1019.09 1019.08 1019.01 1018.91 1018.88
1012.85 1013.43 1014.14 1014.63 1015.20 1015.84 1016.43 1016.74 1017.01 1017.19 1017.24 1017.40 1017.50 1017.48 1017.52 1017.98 1018.41 1018.86 1018.93 1018.72 1018.56 1018.81 1019.51 1018.37 1018.16 1018.36 1018.06 1017.99 1018.51 1018.67 1018.73 1018.71 1018.60 1018.58 1018.57 1018.46 1018.40 1018.36
1011.86 1012.44 1013.08 1013.60 1014.24 1014.72 1015.29 1015.97 1016.50 1016.59 1016.61 1016.89 1016.92 1016.93 1017.34 1017.64 1018.05 1018.24 1018.57 1018.93 1018.93 1018.98 1019.35 1018.47 1018.02 1018.10 1017.90 1017.94 1018.18 1018.34 1018.30 1018.14 1018.12 1018.14 1018.11 1018.03 1017.92 1017.85
1011.04 1011.61 1012.33 1013.00 1013.44 1014.33 1014.86 1015.20 1015.60 1015.61 1016.10 1016.72 1017.05 1017.29 1017.54 1017.79 1018.04 1018.31 1018.26 1018.35 1017.92 1017.78 1018.78 1018.44 1017.97 1018.22 1017.92 1017.77 1017.70 1017.96 1017.91 1017.66 1017.56 1017.55 1017.45 1017.41 1017.38 1017.27
1010.35 1011.00 1011.64 1012.10 1013.02 1014.15 1014.44 1014.52 1014.63 1014.70 1015.68 1016.83 1017.46 1017.53 1017.71 1018.29 1018.59 1017.96 1017.77 1017.77 1017.66 1017.78 1018.51 1018.45 1017.84 1018.21 1017.70 1017.27 1017.68 1017.56 1017.09 1016.91 1017.08 1017.00 1016.93 1016.94 1016.92 1016.29
1009.50 1010.17 1010.77 1011.85 1012.40 1012.75 1013.61 1013.93 1014.05 1014.48 1015.64 1016.06 1016.53 1016.96 1017.43 1017.59 1017.61 1018.05 1017.94 1017.99 1017.96 1018.08 1018.41 1018.52 1018.04 1018.30 1018.11 1017.68 1017.38 1017.17 1016.78 1016.31 1016.07 1015.94 1016.04 1016.20 1016.30 1016.39
1008.02 1009.13 1010.01 1011.00 1011.67 1012.25 1012.61 1013.55 1013.81 1014.35 1015.04 1015.35 1015.62 1016.21 1016.57 1017.07 1017.53 1017.87 1017.91 1017.92 1018.16 1018.66 1018.84 1018.80 1018.38 1018.32 1018.17 1017.61 1016.95 1016.58 1016.23 1015.88 1015.66 1015.34 1015.10 1015.25 1015.35 1015.18
1007.65 1008.75 1009.44 1010.55 1011.41 1011.69 1012.51 1013.60 1013.98 1013.73 1014.29 1014.66 1015.03 1015.58 1016.14 1016.58 1017.26 1017.77 1017.85 1018.09 1018.36 1018.58 1018.61 1018.64 1018.42 1018.35 1018.24 1017.54 1016.86 1016.37 1015.91 1015.17 1015.00 1014.95 1014.64 1014.48 1014.36 1014.22
1008.95 1010.06 1010.48 1010.80 1011.91 1010.61 1012.70 1013.71 1013.46 1013.11 1013.66 1014.11 1014.49 1015.10 1015.86 1016.68 1017.06 1017.38 1017.16 1017.24 1017.73 1017.78 1018.12 1018.34 1018.42 1018.46 1017.90 1017.19 1016.60 1016.06 1015.42 1014.70 1014.46 1014.43 1014.24 1014.18 1013.79 1013.40
1007.71 1009.69 1009.08 1011.31 1011.85 1011.05 1011.99 1013.09 1013.12 1013.05 1013.61 1014.21 1014.26 1015.12 1015.65 1016.17 1016.57 1017.16 1017.12 1017.54 1017.30 1016.83 1017.23 1017.41 1017.71 1018.10 1017.72 1017.53 1016.53 1015.55 1014.80 1014.27 1014.19 1013.99 1014.14 1013.41 1013.11 1012.70
1007.55 1008.22 1010.15 1010.69 1010.96 1010.85 1011.73 1012.37 1012.68 1013.04 1013.32 1013.84 1014.21 1014.77 1015.29 1015.60 1016.20 1016.84 1016.82 1016.89 1017.11 1016.70 1016.94 1017.19 1017.30 1016.94 1016.38 1016.00 1016.15 1015.39 1014.73 1014.18 1013.96 1013.87 1013.84 1012.97 1012.10 1011.82
1005.86 1007.71 1008.48 1008.38 1009.15 1010.24 1010.62 1011.40 1011.58 1012.22 1013.04 1013.48 1013.83 1014.36 1015.13 1015.29 1016.36 1016.21 1016.26 1016.77 1016.87 1017.06 1017.02 1016.94 1017.09 1016.69 1016.08 1015.36 1015.14 1015.68 1015.11 1014.43 1013.99 1013.49 1013.07 1012.65 1011.84 1011.08
1002.56 1006.00 1005.89 1007.71 1008.57 1009.19 1009.52 1010.06 1010.96 1011.76 1012.31 1012.82 1013.40 1013.99 1014.45 1014.83 1015.61 1016.08 1015.95 1016.41 1016.26 1016.60 1016.99 1016.81 1016.61 1016.35 1015.89 1015.48 1015.27 1014.99 1015.13 1014.68 1013.93 1013.38 1012.79 1012.34 1011.65 1010.78
1003.40 1005.10 1005.31 1006.56 1007.30 1007.56 1008.63 1009.77 1010.42 1010.93 1011.64 1012.09 1012.82 1013.47 1013.74 1014.41 1014.98 1015.33 1015.36 1016.19 1016.12 1016.06 1016.30 1016.27 1015.96 1016.79 1016.03 1015.49 1014.70 1013.95 1013.95 1014.31 1014.05 1013.68 1013.06 1012.38 1011.36 1010.32
1005.23 1005.29 1005.37 1005.98 1006.00 1006.73 1007.90 1009.26 1009.92 1010.76 1011.60 1011.71 1012.11 1012.57 1013.44 1013.79 1013.89 1014.92 1015.40 1015.32 1015.46 1015.59 1015.77 1016.10 1015.86 1015.51 1014.99 1014.46 1014.08 1013.78 1013.37 1013.30 1013.09 1012.86 1012.68 1012.57 1012.03 1010.98
1003.98 1004.12 1004.53 1005.25 1005.48 1006.10 1007.90 1008.74 1009.32 1009.86 1010.74 1010.99 1011.46 1012.06 1012.61 1012.86 1013.29 1014.28 1014.61 1014.37 1014.60 1014.84 1015.32 1015.71 1015.08 1014.64 1014.26 1014.06 1014.17 1013.51 1013.21 1012.84 1012.43 1011.83 1011.46 1011.59 1011.67 1011.39
Thickness
5749 5745 5742 5741 5736 5733 5727 5723 5719 5712 5713 5716 5713 5711 5709 5706 5704 5702 5699 5694 5691 5689 5688 5687 5685 5683 5681 5680 5678 5677 5676 5675 5674 5675 5675 5675 5676 5677
5755 5750 5746 5744 5739 5735 5729 5724 5720 5719 5713 5718 5714 5711 5707 5704 5701 5697 5695 5693 5690 5685 5681 5679 5678 5676 5673 5672 5672 5672 5670 5669 5669 5668 5669 5670 5671 5672
5758 5753 5749 5745 5743 5737 5732 5728 5724 5719 5715 5717 5714 5708 5701 5699 5699 5696 5695 5688 5684 5683 5683 5681 5677 5673 5673 5672 5668 5665 5665 5663 5662 5662 5662 5663 5665 5667
5763 5755 5750 5748 5745 5741 5735 5730 5725 5719 5716 5707 5712 5709 5702 5698 5695 5693 5690 5689 5681 5675 5671 5671 5669 5666 5664 5662 5660 5658 5658 5658 5656 5655 5655 5656 5657 5658
5766 5760 5762 5751 5740 5740 5736 5731 5727 5720 5713 5709 5708 5705 5702 5699 5693 5688 5684 5682 5680 5673 5668 5665 5660 5658 5655 5652 5651 5650 5649 5647 5648 5647 5646 5646 5646 5648
5771 5765 5756 5749 5745 5738 5735 5730 5726 5719 5712 5706 5705 5703 5697 5694 5690 5688 5685 5683 5678 5674 5666 5662 5655 5648 5644 5644 5643 5640 5638 5638 5636 5635 5634 5634 5634 5635
5772 5765 5761 5756 5750 5744 5737 5730 5725 5719 5714 5707 5701 5699 5695 5688 5684 5684 5678 5672 5666 5659 5656 5651 5646 5638 5637 5637 5633 5630 5627 5624 5623 5622 5621 5621 5622 5624
5773 5768 5763 5757 5751 5745 5740 5735 5729 5720 5712 5707 5701 5695 5693 5686 5682 5676 5666 5657 5651 5648 5642 5645 5636 5631 5630 5627 5624 5618 5614 5612 5611 5609 5607 5607 5608 5608
5778 5771 5764 5759 5753 5745 5736 5730 5724 5718 5714 5707 5699 5694 5689 5682 5673 5663 5658 5654 5649 5643 5633 5636 5633 5626 5624 5620 5613 5609 5605 5601 5600 5598 5596 5596 5594 5595
5779 5773 5765 5760 5755 5749 5741 5730 5722 5718 5712 5705 5700 5693 5684 5679 5671 5664 5655 5646 5640 5634 5627 5627 5628 5620 5617 5610 5604 5599 5596 5592 5588 5584 5582 5582 5583 5585
5778 5772 5765 5758 5755 5743 5737 5730 5721 5717 5708 5700 5692 5685 5679 5671 5661 5655 5649 5640 5637 5634 5623 5622 5621 5610 5607 5601 5596 5590 5586 5582 5577 5572 5570 5570 5571 5573
5774 5769 5760 5758 5747 5736 5733 5728 5720 5714 5703 5689 5682 5677 5670 5658 5651 5650 5647 5638 5632 5625 5620 5614 5612 5602 5597 5595 5584 5580 5579 5574 5569 5566 5563 5561 5560 5563
5768 5764 5761 5747 5742 5737 5730 5726 5718 5710 5694 5686 5679 5672 5661 5656 5650 5641 5637 5632 5625 5618 5613 5608 5603 5592 5586 5581 5577 5573 5571 5569 5566 5563 5560 5556 5554 5552
5770 5762 5753 5742 5735 5728 5726 5717 5709 5701 5691 5683 5676 5667 5660 5652 5644 5635 5631 5626 5618 5609 5601 5598 5593 5585 5577 5573 5571 5569 5567 5563 5560 5559 5557 5553 5551 5550
5761 5748 5737 5725 5719 5718 5715 5704 5696 5697 5686 5676 5670 5663 5656 5650 5639 5630 5625 5619 5610 5603 5598 5592 5587 5578 5570 5567 5566 5564 5562 5563 5557 5552 5550 5548 5546 5543
5731 5712 5709 5709 5698 5714 5701 5692 5692 5690 5679 5671 5667 5660 5652 5640 5634 5626 5623 5619 5608 5605 5596 5587 5578 5569 5565 5564 5563 5561 5560 5558 5555 5547 5542 5538 5537 5536
5724 5684 5699 5679 5684 5697 5696 5684 5682 5679 5669 5662 5660 5650 5643 5636 5629 5621 5618 5610 5603 5603 5594 5586 5575 5564 5559 5556 5556 5559 5558 5554 5548 5541 5533 5534 5532 5530
5709 5701 5686 5685 5683 5690 5682 5676 5672 5666 5662 5656 5651 5645 5637 5632 5624 5617 5615 5607 5599 5598 5589 5580 5571 5565 5563 5561 5555 5553 5552 5547 5541 5534 5527 5529 5532 5528
5705 5693 5691 5696 5694 5685 5680 5670 5668 5662 5655 5649 5646 5639 5629 5627 5612 5614 5613 5603 5597 5591 5584 5578 5567 5563 5560 5558 5557 5546 5543 5541 5537 5533 5529 5525 5527 5529
5727 5697 5704 5690 5683 5680 5676 5672 5661 5654 5650 5645 5640 5633 5628 5621 5611 5607 5607 5598 5597 5589 5580 5574 5568 5565 5561 5556 5551 5546 5538 5534 5532 5529 5526 5523 5520 5521
5701 5692 5699 5688 5681 5683 5674 5661 5654 5650 5645 5641 5634 5628 5625 5615 5610 5605 5603 5589 5588 5588 5579 5572 5569 5558 5556 5552 5552 5550 5542 5532 5523 5519 5516 5515 5516 5516
5669 5675 5687 5680 5683 5680 5669 5652 5647 5641 5634 5633 5631 5628 5618 5612 5610 5601 5595 5593 5589 5585 5578 5568 5565 5563 5561 5557 5552 5547 5542 5534 5524 5516 5510 5502 5497 5496
5671 5677 5679 5672 5675 5671 5650 5645 5640 5637 5631 5631 5628 5622 5617 5612 5607 5597 5593 5593 5590 5584 5575 5564 5565 5566 5563 5556 5546 5545 5540 5535 5529 5524 5515 5503 5492 5481